Regional Weather Roundup
Issued by NWS

Home | Current Version | Previous Version | Text Only | Print | Product List | Glossary Off
Versions: 1 2 3 4 5 6 7 8 9 10 11 12 13 14 15 16 17 18 19 20 21 22 23 24 25 26 27 28 29 30 31 32 33 34 35 36 37 38 39 40 41 42 43 44 45 46 47 48 49 50

023
ASUS43 KDTX 231410
RWRMI
MICHIGAN HOURLY REGIONAL WEATHER ROUNDUP
NATIONAL WEATHER SERVICE DETROIT/PONTIAC MI
1000 AM EDT SAT SEP 23 2017

NOTE: "FAIR" INDICATES FEW OR NO CLOUDS BELOW 12,000 FEET WITH NO
SIGNIFICANT WEATHER AND/OR OBSTRUCTION TO VISIBILITY.

MIZ047>049-052>055-059>063-066>070-074>076-081>083-231500-
SOUTHEAST LOWER MICHIGAN

CITY           SKY/WX    TMP DP  RH WIND       PRES   REMARKS
ADRIAN         SUNNY     73  66  78 CALM      30.16S
ALMA           SUNNY     76  65  67 SW7       30.14S
ANN ARBOR      SUNNY     76  67  73 CALM      30.15S
BAD AXE        SUNNY     77  64  62 W3        30.15S
CARO           SUNNY     77  61  58 SW3       30.14R
DETROIT CITY   SUNNY     76  65  68 CALM      30.15R
DETROIT        MOSUNNY   75  67  76 CALM      30.15S
FLINT          SUNNY     78  61  55 SW5       30.15R
GROSSE ILE     SUNNY     74  68  82 CALM      30.14R
HOWELL         SUNNY     77  62  58 SW3       30.16R

CITY           SKY/WX    TMP DP  RH WIND       PRES   REMARKS
JACKSON        SUNNY     76  64  66 CALM      30.15R
LAMBERTVILLE   SUNNY     74  67  78 CALM      30.14S
LANSING        SUNNY     78  58  49 SW5       30.15R
LAPEER         FAIR      77  62  58 CALM      30.15S
MASON          SUNNY     78  63  60 CALM      30.16R
MONROE         SUNNY     73  68  84 CALM      30.14S
MT. CLEMENS    MOSUNNY   76  71  85 CALM      30.13R
PONTIAC        MOSUNNY   77  61  57 S3        30.15R
PORT HOPE        N/A     76  65  68 VRB5      30.12R
PORT HURON     SUNNY     77  63  61 CALM      30.15R
TRI CITIES     SUNNY     77  67  71 SW8       30.14R
MIDLAND        FAIR      75  66  72 SW6       30.13R
TROY           SUNNY     75  65  72 CALM      30.17R
SAGINAW HB     SUNNY     77  63  61 SW8       30.13R
$$
MIZ043>046-050>051-056>058-064>065-071>073-077>080-231500-
SOUTHWEST LOWER MICHIGAN

CITY           SKY/WX    TMP DP  RH WIND       PRES   REMARKS
BATTLE CREEK   SUNNY     78  65  63 S3        30.15R
BENTON HARBOR  SUNNY     78  67  68 CALM      30.12R
BIG RAPIDS     SUNNY     71  64  79 SW5       30.14R
COLDWATER      SUNNY     74  66  75 CALM      30.15R
FREMONT        FAIR      77  69  75 S5        30.12S
HOLLAND        SUNNY     80  67  64 S3        30.13R
GRAND RAPIDS   MOSUNNY   80  66  62 S5        30.14R
IONIA          FAIR      80  62  53 SW7       30.14R
KALAMAZOO      SUNNY     77  65  66 CALM      30.14R
LUDINGTON      SUNNY     78  67  69 S6        30.10R
MARSHALL       SUNNY     75  63  65 CALM      30.15
MUSKEGON       MOSUNNY   82  68  62 S7        30.13R
SOUTH HAVEN    SUNNY     79  68  69 S3        30.12S
$$
MIZ016>042-231500-
NORTHERN LOWER MICHIGAN

CITY           SKY/WX    TMP DP  RH WIND       PRES   REMARKS
ALPENA         CLOUDY    78  69  73 SW6       30.10R
BEAVER ISLAND  SUNNY     77  66  68 SW14      30.05S
BELLAIRE       SUNNY     78  66  66 S5        30.09R
CADILLAC       SUNNY     76  65  68 SW6       30.13S
CHARLEVOIX     SUNNY     79  66  65 S8        30.10R
FRANKFORT      SUNNY     82  67  61 SW8       30.09R
GAYLORD        SUNNY     76  64  66 SW12      30.13R
GRAYLING       SUNNY     75  64  69 S5        30.14R
HARBOR SPRINGS SUNNY     77  66  68 W5        30.07R
HOUGHTON LAKE  SUNNY     76  65  68 W5        30.15R
MANISTEE       SUNNY     76  68  76 CALM      30.09S
OSCODA         SUNNY     77  70  80 SW6       30.11S
PELLSTON       SUNNY     80  67  64 W6        30.07R
ROGERS CITY    CLOUDY    76  66  71 SW6       30.09R
TRAVERSE CITY  MOSUNNY   81  67  62 CALM      30.07R
$$
MIZ007>008-015-231500-
EASTERN UPPER MICHIGAN

CITY           SKY/WX    TMP DP  RH WIND       PRES   REMARKS
KINROSS        SUNNY     73  67  81 VRB5      30.07R
MACKINAC ISLAN SUNNY     77  64  63 SW6       30.07R
NEWBERRY       SUNNY     72  71  96 SW6       30.04R
S. S. MARIE    MOSUNNY   72  66  81 SE5       30.06R
MUNISING         N/A     78  69  73 CALM      30.01R
$$
MIZ004>006-011>014-085-231500-
CENTRAL UPPER MICHIGAN

CITY           SKY/WX    TMP DP  RH WIND       PRES   REMARKS
MANISTIQUE     SUNNY     69  63  81 S7        30.03R
ESCANABA       SUNNY     70  67  90 S3        30.02R
MENOMINEE      SUNNY     74  66  76 SW6       30.04S
SAWYER-GWINN   SUNNY     68  64  88 SW7       30.03R
$$
MIZ001>003-009>011-084-231500-
WESTERN UPPER MICHIGAN

CITY           SKY/WX    TMP DP  RH WIND       PRES   REMARKS
IRON MOUNTAIN  SUNNY     77  66  68 SW3       30.02R
HOUGHTON       CLOUDY    72  66  81 S6        29.94R
COPPER HARBOR    N/A     75  67  76 SW8G18    29.89R
IRONWOOD       MOSUNNY   76  68  76 S15       29.96S
$$

ABBREVIATIONS USED IN REMARKS
   TC - TEMPERATURE IN CELSIUS
  WCI - WIND CHILL INDEX
   HX - HEAT INDEX
  VSB - VISIBILITY





USA.gov is the U.S. government's official web portal to all federal, state and local government web resources and services.